Voltar ao catálogo

STARLINK-37108

AtivoComunicaçõesSSO
NORAD 68218·PAYLOAD·🇺🇸 United States

Lançado Mar 17, 2026 de Vandenberg Space Force Base

Loading…

Próximas Passagens (próximas 24 horas)

TLE

AtualizadoSource: CelesTrak SupGP

Época: Sep 15, 2026, 03:28 UTC

1 68218C 26053M   26258.14493056  .00029492  00000+0  91519-3 0  2587
2 68218  97.2846 131.9893 0002114  94.8783 210.3735 15.33433747    16

Acompanhe STARLINK-37108 em tempo real com AllMySat

Download on the App Store